Location: ??
(35.5653°N, 139.6194°E)
Time: 02:10:58
(UTC+00:00)

Cosmos 1825 - Pass Details

Date: 20 November 2019
Orbit: 504 x 508 km, 82.5° (Epoch: 06 December)

Event Time Altitude Azimuth Distance (km) Brightness Sun altitude
Rises 19:07:25 0° 164° (SSE) 2,588 6.0 -27.2°
Reaches altitude 10° 19:09:41 10° 153° (SSE) 1,708 5.2 -26.8°
Maximum altitude 19:12:59 30° 91° (E) 929 4.1 -26.1°
Drops below altitude 10° 19:16:18 10° 30° (NNE) 1,720 5.1 -25.4°
Sets 19:18:35 0° 19° (NNE) 2,610 5.9 -25.0°
